Volver al catálogo

BREEZE-KM DEB

ActivoPO
NORAD 41719·DEBRIS·🇷🇺 Russia

Lanzado Mar 31, 2015 desde Plesetsk Cosmodrome

Loading…

Próximos Pases (próximas 24 horas)

TLE

ActualizadoSource: Space-Track

Época: Sep 14, 2026, 05:11 UTC

1 41719U 15020G   26257.21622444 -.00000003  00000-0 -52474-4 0  9998
2 41719  82.4951 174.4086 0220797 286.8695  70.8298 12.75195190523806

Sigue BREEZE-KM DEB en tiempo real con AllMySat

Download on the App Store